Tracking 32140 objects as of 14-Nov-2025
HD Live streaming from Space Station
objects crossing your sky now

STARLINK-34859

Track STARLINK-34859 now!
10-day predictions
STARLINK-34859 is classified as:


NORAD ID: 65348
Int'l Code: 2025-189AB
Perigee: 481.6 km
Apogee: 483.3 km
Inclination: 53.2 °
Period: 94.1 minutes
Semi major axis: 6853 km
RCS: Unknown
Launch date: August 27, 2025
Source: United States (US)
Launch site: AIR FORCE EASTERN TEST RANGE (AFETR)
Your satellite tracking list
Your tracking list is empty




NASA's NSSDC Master Catalog

Two Line Element Set (TLE):
1 65348U 25189AB  25317.66668981  .00093949  00000-0  31478-2 0  9998
2 65348  53.1584  25.8286 0001272  69.6963 187.8086 15.30163599  5911
Source of the keplerian elements: AFSPC